Location: Freistadt
(48.5112°N, 14.5013°E)
Time: 13:06:49
(UTC+01:00)

COSMOS 2251 DEB - Pass Details

Date: 14 December 2023
Orbit: 611 x 652 km, 74.0° (Epoch: 27 February)

Event Time Altitude Azimuth Distance (km) Brightness Sun altitude
Exits shadow 04:54:50 - 11° (N) 2,134 ? -27.2°
Reaches altitude 10° 04:55:32 10° 18° (NNE) 1,997 ? -27.0°
Drops below altitude 10° 04:59:32 10° 72° (ENE) 1,980 ? -26.4°
Enters shadow 06:01:54 -63° 322° (NW) 12,141 ? -16.3°
Maximum altitude 06:37:51 78° 67° (ENE) 633 ? -10.7°
